Time,TemperatureF,DewpointF,PressureIn,WindDirection,WindDirectionDegrees,WindSpeedMPH,WindSpeedGustMPH,Humidity,HourlyPrecipIn,Conditions,Clouds,dailyrainin,SoftwareType,DateUTC
2013-11-23 00:21:00,50.0,39.0,29.96,NNE,13,6.0,-999.0,65,-99.99,,,-99.99,,2013-11-23 08:21:00,
2013-11-23 00:42:00,50.0,39.0,29.96,NNE,19,7.0,-999.0,65,-99.99,,,-99.99,,2013-11-23 08:42:00,
2013-11-23 00:52:00,50.0,39.0,29.96,NE,46,8.0,-999.0,65,-99.99,,,-99.99,,2013-11-23 08:52:00,
2013-11-23 01:21:00,50.0,39.0,29.95,North,355,10.0,-999.0,65,-99.99,,,-99.99,,2013-11-23 09:21:00,
2013-11-23 01:43:00,50.0,39.0,29.96,NNE,22,9.0,-999.0,65,-99.99,,,-99.99,,2013-11-23 09:43:00,
2013-11-23 01:54:00,50.0,39.0,29.96,NE,53,8.0,-999.0,65,-99.99,,,-99.99,,2013-11-23 09:54:00,
2013-11-23 02:22:00,50.0,39.0,29.96,NNE,28,8.0,-999.0,65,-99.99,,,-99.99,,2013-11-23 10:22:00,
2013-11-23 02:42:00,50.0,39.0,29.96,NNE,21,8.0,-999.0,65,-99.99,,,-99.99,,2013-11-23 10:42:00,
2013-11-23 02:52:00,49.0,38.0,29.96,NE,38,7.0,-999.0,66,-99.99,,,-99.99,,2013-11-23 10:52:00,
2013-11-23 03:22:00,50.0,39.0,29.96,NE,37,9.0,-999.0,65,-99.99,,,-99.99,,2013-11-23 11:22:00,
2013-11-23 03:42:00,50.0,39.0,29.97,NE,38,7.0,-999.0,66,-99.99,,,-99.99,,2013-11-23 11:42:00,
2013-11-23 03:52:00,50.0,39.0,29.97,NNE,25,8.0,-999.0,65,-99.99,,,-99.99,,2013-11-23 11:52:00,
2013-11-23 04:22:00,50.0,39.0,29.98,NNE,29,5.0,-999.0,65,-99.99,,,-99.99,,2013-11-23 12:22:00,
2013-11-23 04:42:00,50.0,39.0,29.97,NNE,22,4.0,-999.0,66,-99.99,,,-99.99,,2013-11-23 12:42:00,
2013-11-23 04:52:00,50.0,38.0,29.98,NNE,15,7.0,-999.0,64,-99.99,,,-99.99,,2013-11-23 12:52:00,
2013-11-23 05:11:00,50.0,38.0,29.98,NNE,27,8.0,-999.0,64,-99.99,,,-99.99,,2013-11-23 13:11:00,
2013-11-23 05:21:00,50.0,38.0,29.98,NE,40,10.0,-999.0,64,-99.99,,,-99.99,,2013-11-23 13:21:00,
2013-11-23 05:42:00,50.0,39.0,29.98,NE,37,10.0,-999.0,65,-99.99,,,-99.99,,2013-11-23 13:42:00,
2013-11-23 05:52:00,50.0,39.0,29.98,NNE,25,8.0,-999.0,65,-99.99,,,-99.99,,2013-11-23 13:52:00,
2013-11-23 06:21:00,50.0,39.0,29.99,North,5,8.0,-999.0,65,-99.99,,,-99.99,,2013-11-23 14:21:00,
2013-11-23 06:42:00,50.0,39.0,29.99,NE,34,8.0,-999.0,65,-99.99,,,-99.99,,2013-11-23 14:42:00,
2013-11-23 06:52:00,50.0,39.0,30.00,North,355,11.0,-999.0,65,-99.99,,,-99.99,,2013-11-23 14:52:00,
2013-11-23 07:22:00,50.0,39.0,30.01,NE,55,9.0,-999.0,65,-99.99,,,-99.99,,2013-11-23 15:22:00,
2013-11-23 07:43:00,50.0,39.0,30.02,NNE,31,8.0,-999.0,65,-99.99,,,-99.99,,2013-11-23 15:43:00,
2013-11-23 07:54:00,51.0,40.0,30.03,NNE,23,7.0,-999.0,65,-99.99,,,-99.99,,2013-11-23 15:54:00,
2013-11-23 08:23:00,52.0,40.0,30.03,SE,139,7.0,-999.0,63,-99.99,,,-99.99,,2013-11-23 16:23:00,
2013-11-23 08:43:00,53.0,40.0,30.03,NNE,30,8.0,-999.0,61,-99.99,,,-99.99,,2013-11-23 16:43:00,
2013-11-23 08:53:00,54.0,40.0,30.03,NNE,32,9.0,-999.0,60,-99.99,,,-99.99,,2013-11-23 16:53:00,
2013-11-23 09:22:00,54.0,40.0,30.02,NE,36,7.0,-999.0,59,-99.99,,,-99.99,,2013-11-23 17:22:00,
2013-11-23 09:42:00,54.0,40.0,30.03,NNE,15,6.0,-999.0,60,-99.99,,,-99.99,,2013-11-23 17:42:00,
2013-11-23 09:52:00,55.0,41.0,30.03,NE,37,6.0,-999.0,59,-99.99,,,-99.99,,2013-11-23 17:52:00,
2013-11-23 10:22:00,55.0,41.0,30.02,NE,44,10.0,-999.0,58,-99.99,,,-99.99,,2013-11-23 18:22:00,
2013-11-23 10:42:00,56.0,41.0,30.02,NNE,15,8.0,-999.0,56,-99.99,,,-99.99,,2013-11-23 18:42:00,
2013-11-23 10:52:00,56.0,40.0,30.02,NE,37,7.0,-999.0,55,-99.99,,,-99.99,,2013-11-23 18:52:00,
2013-11-23 11:21:00,57.0,40.0,30.02,North,360,6.0,-999.0,53,-99.99,,,-99.99,,2013-11-23 19:21:00,
2013-11-23 11:42:00,57.0,40.0,30.02,NNE,24,7.0,-999.0,53,-99.99,,,-99.99,,2013-11-23 19:42:00,
2013-11-23 11:52:00,58.0,41.0,30.02,North,349,5.0,-999.0,54,-99.99,,,-99.99,,2013-11-23 19:52:00,
2013-11-23 12:11:00,58.0,40.0,30.01,ENE,61,6.0,-999.0,52,-99.99,,,-99.99,,2013-11-23 20:11:00,
2013-11-23 12:21:00,58.0,40.0,30.01,NNE,27,6.0,-999.0,52,-99.99,,,-99.99,,2013-11-23 20:21:00,
2013-11-23 12:42:00,60.0,40.0,30.00,NE,41,6.0,-999.0,48,-99.99,,,-99.99,,2013-11-23 20:42:00,
2013-11-23 12:52:00,59.0,40.0,30.00,NNE,33,7.0,-999.0,49,-99.99,,,-99.99,,2013-11-23 20:52:00,
2013-11-23 13:21:00,59.0,41.0,30.00,NNE,28,6.0,-999.0,51,-99.99,,,-99.99,,2013-11-23 21:21:00,
2013-11-23 13:42:00,59.0,41.0,30.00,NE,35,5.0,-999.0,51,-99.99,,,-99.99,,2013-11-23 21:42:00,
2013-11-23 13:53:00,59.0,41.0,30.00,NNE,19,6.0,-999.0,51,-99.99,,,-99.99,,2013-11-23 21:53:00,
2013-11-23 14:13:00,59.0,41.0,30.00,NNE,20,7.0,-999.0,52,-99.99,,,-99.99,,2013-11-23 22:13:00,
2013-11-23 14:23:00,59.0,41.0,29.99,North,10,6.0,-999.0,52,-99.99,,,-99.99,,2013-11-23 22:23:00,
2013-11-23 14:43:00,58.0,41.0,29.99,NNE,15,6.0,-999.0,53,-99.99,,,-99.99,,2013-11-23 22:43:00,
2013-11-23 14:52:00,58.0,41.0,29.99,NE,46,6.0,-999.0,53,-99.99,,,-99.99,,2013-11-23 22:52:00,
2013-11-23 15:21:00,57.0,41.0,29.99,NE,34,7.0,-999.0,55,-99.99,,,-99.99,,2013-11-23 23:21:00,
2013-11-23 15:42:00,57.0,41.0,30.00,NE,42,6.0,-999.0,54,-99.99,,,-99.99,,2013-11-23 23:42:00,
2013-11-23 15:53:00,57.0,41.0,30.01,NE,43,6.0,-999.0,55,-99.99,,,-99.99,,2013-11-23 23:53:00,
2013-11-23 16:11:00,57.0,41.0,30.01,NNE,29,3.0,-999.0,56,-99.99,,,-99.99,,2013-11-24 00:11:00,
2013-11-23 16:21:00,57.0,42.0,30.01,NNE,18,3.0,-999.0,57,-99.99,,,-99.99,,2013-11-24 00:21:00,
2013-11-23 16:42:00,57.0,42.0,30.01,NE,56,2.0,-999.0,57,-99.99,,,-99.99,,2013-11-24 00:42:00,
2013-11-23 16:52:00,56.0,41.0,30.01,NNE,32,2.0,-999.0,58,-99.99,,,-99.99,,2013-11-24 00:52:00,
2013-11-23 17:11:00,55.0,41.0,30.02,NNE,25,2.0,-999.0,59,-99.99,,,-99.99,,2013-11-24 01:11:00,
2013-11-23 17:22:00,55.0,41.0,30.02,NE,36,2.0,-999.0,59,-99.99,,,-99.99,,2013-11-24 01:22:00,
2013-11-23 17:42:00,54.0,40.0,30.02,NNE,29,1.0,-999.0,60,-99.99,,,-99.99,,2013-11-24 01:42:00,
2013-11-23 17:52:00,54.0,41.0,30.02,NNE,32,1.0,-999.0,61,-99.99,,,-99.99,,2013-11-24 01:52:00,
2013-11-23 18:11:00,53.0,40.0,30.02,NNE,28,2.0,-999.0,62,-99.99,,,-99.99,,2013-11-24 02:11:00,
2013-11-23 18:22:00,53.0,40.0,30.03,NE,36,2.0,-999.0,62,-99.99,,,-99.99,,2013-11-24 02:22:00,
2013-11-23 18:42:00,53.0,41.0,30.03,NE,34,1.0,-999.0,63,-99.99,,,-99.99,,2013-11-24 02:42:00,
2013-11-23 18:52:00,53.0,41.0,30.03,NNE,24,4.0,-999.0,63,-99.99,,,-99.99,,2013-11-24 02:52:00,
2013-11-23 19:11:00,53.0,41.0,30.04,NNE,29,2.0,-999.0,63,-99.99,,,-99.99,,2013-11-24 03:11:00,
2013-11-23 19:22:00,53.0,40.0,30.04,NE,36,2.0,-999.0,62,-99.99,,,-99.99,,2013-11-24 03:22:00,
2013-11-23 19:43:00,53.0,40.0,30.05,NNE,24,0.0,-999.0,62,-99.99,,,-99.99,,2013-11-24 03:43:00,
2013-11-23 19:53:00,52.0,40.0,30.06,NNE,30,1.0,-999.0,63,-99.99,,,-99.99,,2013-11-24 03:53:00,
2013-11-23 20:02:00,-999.0,-99.9,30.06,NNE,17,1.0,-999.0,63,-99.99,,,-99.99,,2013-11-24 04:02:00,
2013-11-23 20:23:00,52.0,40.0,30.07,NNE,28,1.0,-999.0,63,-99.99,,,-99.99,,2013-11-24 04:23:00,
2013-11-23 20:53:00,53.0,41.0,30.07,NE,50,3.0,-999.0,63,-99.99,,,-99.99,,2013-11-24 04:53:00,
2013-11-23 21:22:00,53.0,41.0,30.07,NNE,25,7.0,-999.0,63,-99.99,,,-99.99,,2013-11-24 05:22:00,
2013-11-23 21:43:00,53.0,41.0,30.07,NNE,22,7.0,-999.0,63,-99.99,,,-99.99,,2013-11-24 05:43:00,
2013-11-23 21:53:00,53.0,41.0,30.07,NNE,29,5.0,-999.0,64,-99.99,,,-99.99,,2013-11-24 05:53:00,
2013-11-23 22:21:00,53.0,41.0,30.06,NNE,32,6.0,-999.0,63,-99.99,,,-99.99,,2013-11-24 06:21:00,
2013-11-23 22:42:00,53.0,41.0,30.07,North,355,6.0,-999.0,63,-99.99,,,-99.99,,2013-11-24 06:42:00,
2013-11-23 22:52:00,53.0,41.0,30.07,NNE,12,6.0,-999.0,63,-99.99,,,-99.99,,2013-11-24 06:52:00,
2013-11-23 23:11:00,53.0,41.0,30.08,NNE,28,3.0,-999.0,64,-99.99,,,-99.99,,2013-11-24 07:11:00,
2013-11-23 23:21:00,53.0,41.0,30.08,ENE,71,2.0,-999.0,63,-99.99,,,-99.99,,2013-11-24 07:21:00,
2013-11-23 23:42:00,53.0,41.0,30.08,NNE,29,1.0,-999.0,64,-99.99,,,-99.99,,2013-11-24 07:42:00,
2013-11-23 23:52:00,53.0,41.0,30.08,NE,34,3.0,-999.0,64,-99.99,,,-99.99,,2013-11-24 07:52:00,